[[{"header":{"parameterUnit":"m.s-1","parameterCategory":1,"la1":30.2991,"la2":30.254,"lo1":-89.0895,"lo2":-89.0444,"dy":0.0017,"dx":0.0017,"nx":28,"ny":28,"refTime":"2024-09-01T21:00:00:Z","depth":0,"parameterNumber":2,"parameterNumberName":"U-component_of_WINDS"},"data":[0,0,0,0,0,0,0,0,0,0,0,0,0,0,0,0,0,0,0,0,0,0,0,0,0,0,0,0,0,0,0,0,0,0,0,0,0,0,0,0,0,0,0,0,0,0,0,0,0,0,0,0,0,0,0,0,0,0,-1.7881,-1.7881,0,-1.7888,-1.7888,-1.7888,-1.7896,-1.7896,-1.7896,-1.7896,-1.7903,-1.7903,-1.7903,0,0,0,0,0,0,0,0,0,0,0,0,0,-1.7873,-1.7873,-1.7881,-1.7881,-1.7881,-1.7888,-1.7888,-1.7888,-1.7896,-1.7896,-1.7896,-1.7896,-1.7903,-1.7903,-1.7903,0,0,0,0,0,0,0,0,0,0,0,0,0,-1.7878,-1.7873,-1.7881,-1.7886,-1.7886,-1.7888,-1.7888,-1.7888,-1.7896,-1.7896,-1.7896,-1.7896,-1.7903,-1.7903,-1.7903,-1.79,0,0,-1.7903,-1.7903,0,0,0,0,0,0,0,0,-1.7878,-1.7878,-1.7885,-1.7885,-1.7886,-1.7891,-1.7888,-1.7892,-1.7896,-1.7892,-1.7896,-1.7896,-1.7899,-1.7899,-1.79,-1.79,-1.7901,-1.7903,-1.7903,-1.7903,-1.7903,0,0,0,0,0,0,0,-1.7877,-1.7878,-1.7884,-1.7885,-1.7885,-1.7887,-1.7888,-1.7889,-1.7894,-1.7892,-1.7893,-1.7894,-1.7899,-1.79,-1.79,-1.7901,-1.7903,-1.7903,-1.7903,-1.7903,-1.79,-1.7899,0,0,0,0,0,0,-1.7876,-1.7878,-1.7883,-1.7884,-1.7882,-1.7887,-1.7888,-1.7889,-1.7894,-1.7895,-1.7893,-1.7894,-1.79,-1.79,-1.79,-1.7898,-1.7903,-1.7903,-1.7903,-1.79,-1.79,-1.7899,0,0,0,0,0,0,-1.7876,-1.7877,-1.7883,-1.7881,-1.7882,-1.7887,-1.7888,-1.7889,-1.789,-1.7895,-1.7896,-1.7893,-1.79,-1.79,-1.79,-1.7898,-1.7903,-1.7903,-1.79,-1.79,-1.7899,-1.7892,0,0,0,0,0,0,-1.7876,-1.7877,-1.7876,-1.7881,-1.7882,-1.7883,-1.7888,-1.7889,-1.789,-1.7891,-1.7895,-1.7896,-1.79,-1.79,-1.79,-1.7898,-1.7904,-1.79,-1.79,-1.7899,-1.7892,-1.7891,-1.7891,0,0,0,0,0,-1.7876,-1.7873,-1.7876,-1.7876,-1.7881,-1.7883,-1.7883,-1.7888,-1.789,-1.7889,-1.7893,-1.7896,-1.7898,-1.79,-1.79,-1.7898,-1.79,-1.79,-1.79,-1.7893,-1.7892,-1.7891,0,0,0,0,0,0,-1.7868,-1.7874,-1.7877,-1.7876,-1.7879,-1.7884,-1.7883,-1.7886,-1.7888,-1.7889,-1.7894,-1.7895,-1.7894,-1.7896,-1.7898,-1.7896,-1.79,-1.7899,-1.7895,-1.7893,-1.7893,-1.7892,-1.7904,0,0,0,0,0,-1.7866,-1.7867,-1.7872,-1.7871,-1.7872,-1.7877,-1.7878,-1.7882,-1.7884,-1.7886,-1.7889,-1.7891,-1.7893,-1.7893,-1.7895,-1.7893,-1.7894,-1.7892,-1.7891,-1.789,-1.789,-1.7889,-1.7888,-1.7898,-1.7898,-1.7898,0,0,-1.7862,-1.7866,-1.7866,-1.787,-1.7872,-1.7873,-1.7878,-1.7879,-1.7879,-1.7886,-1.7886,-1.7888,-1.7891,-1.789,-1.789,-1.7892,-1.7887,-1.789,-1.7889,-1.7889,-1.7888,-1.7887,-1.7886,-1.7898,-1.7898,-1.7898,0,0,-1.7855,-1.7858,-1.7858,-1.786,-1.7864,-1.7867,-1.7867,-1.7872,-1.7874,-1.7874,-1.7879,-1.7879,-1.7881,-1.7884,-1.7885,-1.7879,-1.7883,-1.788,-1.7875,-1.7874,-1.7873,-1.7872,-1.787,-1.7869,-1.7879,-1.7879,-1.7879,0,-1.785,-1.7851,-1.7857,-1.7857,-1.7858,-1.7865,-1.7864,-1.7866,-1.787,-1.7871,-1.7873,-1.7876,-1.7878,-1.7878,-1.7876,-1.7877,-1.7877,-1.7879,-1.7873,-1.7872,-1.7872,-1.787,-1.7869,-1.7879,-1.7879,-1.7879,-1.7879,0,-1.7844,-1.7845,-1.7844,-1.7848,-1.785,-1.785,-1.7855,-1.7855,-1.7859,-1.7862,-1.7862,-1.7865,-1.7867,-1.7868,-1.7871,-1.7868,-1.7869,-1.7872,-1.7876,-1.787,-1.7868,-1.7868,-1.7878,-1.7878,-1.7879,-1.7879,0,0,-1.7832,-1.784,-1.7839,-1.7841,-1.7846,-1.7847,-1.7847,-1.7849,-1.7849,-1.7852,-1.7852,-1.7854,-1.7857,-1.7858,-1.7862,-1.7861,-1.7856,-1.7864,-1.7864,-1.7862,-1.7853,-1.785,-1.7849,-1.7859,-1.7858,-1.7858,-1.7852,0,-1.7826,-1.7827,-1.7832,-1.7831,-1.7832,-1.7838,-1.7838,-1.7841,-1.7844,-1.7845,-1.7848,-1.7849,-1.7853,-1.7854,-1.7854,-1.7857,-1.7854,-1.7857,-1.7858,-1.7858,-1.7857,-1.7848,-1.7845,-1.7839,-1.7852,-1.7852,-1.7851,0,-1.7819,-1.7821,-1.7821,-1.7826,-1.7826,-1.7826,-1.7829,-1.783,-1.7833,-1.7835,-1.7837,-1.7841,-1.7841,-1.7845,-1.7846,-1.7848,-1.7848,-1.785,-1.785,-1.785,-1.7854,-1.7847,-1.7837,-1.7836,-1.785,-1.785,-1.7851,0,-1.781,-1.7813,-1.7813,-1.7814,-1.782,-1.782,-1.7822,-1.7826,-1.7827,-1.783,-1.783,-1.7833,-1.7834,-1.7835,-1.784,-1.7842,-1.7839,-1.7844,-1.7841,-1.7841,-1.7839,-1.7839,-1.7829,-1.7841,-1.7841,-1.7841,-1.7841,0,-1.7802,-1.7801,-1.7809,-1.7809,-1.7808,-1.7814,-1.7813,-1.7816,-1.7819,-1.7819,-1.7825,-1.7825,-1.7831,-1.7832,-1.7836,-1.7835,-1.7836,-1.7837,-1.7838,-1.7836,-1.7836,-1.7837,-1.7837,-1.7841,-1.7841,-1.7841,-1.7841,0,-1.7791,-1.7796,-1.7797,-1.7803,-1.7804,-1.7803,-1.7808,-1.7808,-1.7812,-1.7812,-1.7812,-1.7818,-1.7819,-1.7824,-1.7827,-1.7829,-1.7827,-1.7829,-1.7826,-1.7826,-1.7823,-1.7823,-1.7813,-1.7811,-1.7824,-1.7824,-1.7824,0,-1.7786,-1.7785,-1.7791,-1.7792,-1.7794,-1.7796,-1.7797,-1.7803,-1.7804,-1.7808,-1.7807,-1.7809,-1.7811,-1.7813,-1.7817,-1.7819,-1.7821,-1.7817,-1.7821,-1.7819,-1.782,-1.782,-1.782,-1.7816,-1.7815,-1.7815,-1.7815,0,-1.7775,-1.7778,-1.778,-1.7783,-1.7784,-1.7786,-1.7789,-1.7789,-1.7796,-1.7797,-1.7799,-1.78,-1.7803,-1.7804,-1.7807,-1.7809,-1.7813,-1.7814,-1.7813,-1.7811,-1.7809,-1.781,-1.7823,-1.7814,-1.7814,-1.7814,-1.7814,-1.7814,-1.7767,-1.7767,-1.7771,-1.7773,-1.7775,-1.7778,-1.7778,-1.7782,-1.7784,-1.7786,-1.779,-1.7791,-1.7794,-1.7798,-1.78,-1.7801,-1.7803,-1.7803,-1.7802,-1.7802,-1.7801,-1.781,-1.7802,-1.7802,-1.7802,-1.7802,-1.7802,0,-1.7756,-1.7759,-1.7761,-1.7765,-1.7766,-1.777,-1.7774,-1.7774,-1.7775,-1.7779,-1.778,-1.7782,-1.7784,-1.7788,-1.779,-1.779,-1.7792,-1.7791,-1.779,-1.7791,-1.7799,-1.7799,-1.7789,-1.7789,-1.7789,-1.7789,-1.7789,-1.7789,-1.7751,-1.7751,-1.7754,-1.7755,-1.7758,-1.776,-1.7761,-1.7764,-1.7766,-1.7768,-1.777,-1.7773,-1.7776,-1.7779,-1.778,-1.7782,-1.7782,-1.778,-1.7782,-1.7789,-1.779,-1.7791,-1.7792,-1.778,-1.778,-1.7773,-1.7773,-1.7773]},{"header":{"parameterUnit":"m.s-1","parameterCategory":1,"la1":30.2991,"la2":30.254,"lo1":-89.0895,"lo2":-89.0444,"dy":0.0017,"dx":0.0017,"nx":28,"ny":28,"refTime":"2024-09-01T21:00:00:Z","depth":0,"parameterNumber":3,"parameterNumberName":"V-component_of_WINDS"},"data":[0,0,0,0,0,0,0,0,0,0,0,0,0,0,0,0,0,0,0,0,0,0,0,0,0,0,0,0,0,0,0,0,0,0,0,0,0,0,0,0,0,0,0,0,0,0,0,0,0,0,0,0,0,0,0,0,0,0,-1.9437,-1.9437,0,-1.9404,-1.9404,-1.9404,-1.9358,-1.9357,-1.9356,-1.9356,-1.9322,-1.9321,-1.9321,0,0,0,0,0,0,0,0,0,0,0,0,0,-1.946,-1.946,-1.9437,-1.9437,-1.9436,-1.9404,-1.9404,-1.9404,-1.9358,-1.9357,-1.9356,-1.9355,-1.9322,-1.9321,-1.9321,0,0,0,0,0,0,0,0,0,0,0,0,0,-1.9441,-1.946,-1.9437,-1.941,-1.9407,-1.9405,-1.9404,-1.9403,-1.9358,-1.9357,-1.9356,-1.9355,-1.9322,-1.9321,-1.9321,-1.9343,0,0,-1.932,-1.932,0,0,0,0,0,0,0,0,-1.9442,-1.944,-1.9414,-1.9412,-1.9409,-1.9384,-1.94,-1.9383,-1.9359,-1.9377,-1.9356,-1.9354,-1.9343,-1.9341,-1.9338,-1.9341,-1.934,-1.932,-1.932,-1.932,-1.932,0,0,0,0,0,0,0,-1.9444,-1.9441,-1.9424,-1.9414,-1.941,-1.9399,-1.9395,-1.9396,-1.9367,-1.9375,-1.9372,-1.9369,-1.9342,-1.9338,-1.9336,-1.9339,-1.932,-1.932,-1.932,-1.932,-1.936,-1.9361,0,0,0,0,0,0,-1.9449,-1.9443,-1.9425,-1.9423,-1.9423,-1.94,-1.9395,-1.9393,-1.9367,-1.9362,-1.937,-1.9367,-1.9339,-1.9337,-1.9335,-1.936,-1.932,-1.932,-1.932,-1.9359,-1.936,-1.9361,0,0,0,0,0,0,-1.945,-1.9448,-1.9426,-1.9432,-1.9428,-1.9401,-1.9399,-1.9393,-1.9389,-1.9363,-1.9357,-1.9371,-1.9338,-1.9335,-1.9341,-1.9358,-1.932,-1.9319,-1.9357,-1.9359,-1.9361,-1.9408,0,0,0,0,0,0,-1.9451,-1.9448,-1.9456,-1.9433,-1.9428,-1.9434,-1.9399,-1.9393,-1.9389,-1.9385,-1.9363,-1.9358,-1.9337,-1.9342,-1.9341,-1.9357,-1.9319,-1.9356,-1.9358,-1.936,-1.9405,-1.9411,-1.9417,0,0,0,0,0,-1.9452,-1.9471,-1.9457,-1.9455,-1.9438,-1.9435,-1.9432,-1.9408,-1.9391,-1.9398,-1.9381,-1.9359,-1.9356,-1.9343,-1.9342,-1.9357,-1.9354,-1.9357,-1.936,-1.9402,-1.941,-1.9417,0,0,0,0,0,0,-1.9496,-1.9467,-1.9451,-1.9463,-1.9452,-1.9427,-1.9436,-1.9416,-1.9409,-1.9406,-1.9375,-1.9371,-1.9381,-1.9369,-1.9356,-1.9377,-1.9352,-1.9354,-1.9385,-1.9392,-1.9397,-1.94,-1.9319,0,0,0,0,0,-1.9508,-1.9508,-1.9482,-1.9495,-1.949,-1.9464,-1.9462,-1.9444,-1.9431,-1.9426,-1.9409,-1.9397,-1.9393,-1.9392,-1.9387,-1.9403,-1.9398,-1.9413,-1.9419,-1.9424,-1.9427,-1.9436,-1.9442,-1.9371,-1.9371,-1.937,0,0,-1.9531,-1.9515,-1.9517,-1.9504,-1.9493,-1.9494,-1.946,-1.9462,-1.9463,-1.9426,-1.9431,-1.9418,-1.9403,-1.9415,-1.9419,-1.9405,-1.9445,-1.9427,-1.9431,-1.9432,-1.9439,-1.9446,-1.9452,-1.9372,-1.9372,-1.9372,0,0,-1.9574,-1.9562,-1.9572,-1.9562,-1.9546,-1.9528,-1.9531,-1.9509,-1.95,-1.9504,-1.9477,-1.9477,-1.9471,-1.9462,-1.9456,-1.9497,-1.9476,-1.9496,-1.9527,-1.9536,-1.9542,-1.9547,-1.9562,-1.9568,-1.9499,-1.9499,-1.9499,0,-1.9605,-1.9606,-1.9579,-1.9584,-1.9579,-1.9546,-1.9556,-1.9547,-1.9531,-1.9528,-1.9513,-1.9506,-1.9493,-1.9503,-1.9513,-1.9509,-1.9512,-1.9499,-1.9543,-1.9548,-1.9552,-1.9566,-1.9572,-1.9501,-1.9501,-1.9501,-1.9501,0,-1.9646,-1.9646,-1.9656,-1.9642,-1.9638,-1.9645,-1.962,-1.9619,-1.9602,-1.9587,-1.9592,-1.9576,-1.9568,-1.9568,-1.9551,-1.9576,-1.9568,-1.9549,-1.9523,-1.9562,-1.9575,-1.958,-1.9505,-1.9504,-1.9503,-1.9503,0,0,-1.9716,-1.9687,-1.9692,-1.9685,-1.9665,-1.9665,-1.9671,-1.9664,-1.9664,-1.9654,-1.9659,-1.9655,-1.9637,-1.9631,-1.9612,-1.962,-1.9655,-1.96,-1.9599,-1.9612,-1.9683,-1.9698,-1.9705,-1.9641,-1.9642,-1.9643,-1.9684,0,-1.9757,-1.9766,-1.9742,-1.9757,-1.9758,-1.9727,-1.9732,-1.9721,-1.9706,-1.9705,-1.9689,-1.9688,-1.9663,-1.966,-1.9666,-1.965,-1.9669,-1.9646,-1.9646,-1.9646,-1.9652,-1.9712,-1.9728,-1.9768,-1.9689,-1.969,-1.9691,0,-1.9805,-1.9798,-1.9813,-1.9793,-1.9793,-1.9798,-1.979,-1.9789,-1.9776,-1.9765,-1.9758,-1.9737,-1.9742,-1.9716,-1.9723,-1.9708,-1.9706,-1.9698,-1.9699,-1.9699,-1.9672,-1.9715,-1.9781,-1.9787,-1.9698,-1.9698,-1.9697,0,-1.9857,-1.9851,-1.9859,-1.9855,-1.9831,-1.9836,-1.9827,-1.9812,-1.9809,-1.9802,-1.98,-1.9793,-1.979,-1.9785,-1.9763,-1.9746,-1.9773,-1.9745,-1.9764,-1.9765,-1.9772,-1.9772,-1.984,-1.9769,-1.9769,-1.9769,-1.9769,0,-1.9905,-1.9916,-1.9883,-1.9888,-1.99,-1.9872,-1.9884,-1.9872,-1.9859,-1.9862,-1.9834,-1.9837,-1.9807,-1.9807,-1.9789,-1.9798,-1.9796,-1.9788,-1.9783,-1.9791,-1.9792,-1.979,-1.9787,-1.9771,-1.977,-1.977,-1.977,0,-1.9965,-1.9943,-1.9951,-1.9928,-1.9923,-1.9933,-1.9914,-1.9918,-1.9902,-1.9906,-1.9905,-1.988,-1.9879,-1.9856,-1.9849,-1.9837,-1.9854,-1.9843,-1.9859,-1.9856,-1.9877,-1.9876,-1.9947,-1.9955,-1.9878,-1.9879,-1.988,0,-1.9998,-2.0006,-1.9984,-1.9984,-1.9977,-1.9977,-1.9974,-1.9947,-1.9946,-1.9932,-1.9938,-1.9934,-1.993,-1.9929,-1.9911,-1.9906,-1.9896,-1.9921,-1.9895,-1.9903,-1.9898,-1.9898,-1.9899,-1.9927,-1.9928,-1.9929,-1.9929,0,-2.0059,-2.0048,-2.0045,-2.0039,-2.0037,-2.003,-2.0022,-2.0024,-1.9995,-1.9995,-1.9993,-1.999,-1.9984,-1.9981,-1.9973,-1.9963,-1.9942,-1.9938,-1.9942,-1.9951,-1.996,-1.9957,-1.9875,-1.9936,-1.9936,-1.9935,-1.9935,-1.9934,-2.0107,-2.0113,-2.0099,-2.0097,-2.0089,-2.0082,-2.0085,-2.007,-2.0068,-2.0062,-2.0046,-2.0047,-2.0034,-2.0021,-2.0014,-2.0014,-2.0001,-2.0008,-2.0009,-2.0012,-2.0016,-1.9959,-2.0013,-2.0012,-2.0012,-2.0012,-2.0012,0,-2.0168,-2.0157,-2.0156,-2.0146,-2.0145,-2.0125,-2.0115,-2.0116,-2.0117,-2.0107,-2.0104,-2.0102,-2.01,-2.0081,-2.0076,-2.0081,-2.0071,-2.008,-2.008,-2.0079,-2.0028,-2.0025,-2.0088,-2.0088,-2.0088,-2.0088,-2.0088,-2.0088,-2.0199,-2.0208,-2.0196,-2.0201,-2.019,-2.0192,-2.0188,-2.0182,-2.0174,-2.0174,-2.0172,-2.016,-2.0146,-2.014,-2.0137,-2.0132,-2.0132,-2.0145,-2.0137,-2.0089,-2.0082,-2.0075,-2.0072,-2.0145,-2.0145,-2.0188,-2.0188,-2.0189]}]]